Simultaneous Nadir Overpasses (SNOs) Predictions

Prediction of SNOs between GOES-17 and METOP-B Satellite Orbit:

Table of predicted SNOs for the next 14.0 days since TLE Epoch: 12/12/2020
Index Date Time (GOES-17) GOES-17 Lat,Lon METOP-B Lat,Lon Distance(km) Time Diff (sec)
1 12/12/2020 06:40:38 0.03,-137.22 0.00,-137.25 4.46 80
2 12/14/2020 18:38:51 -0.03,-137.22 -0.10,-136.82 44.79 80
3 12/16/2020 06:57:51 0.02,-137.20 -0.93,-141.41 480.26 80
4 12/17/2020 06:34:31 0.02,-137.19 0.17,-136.42 88.01 80
5 12/18/2020 18:53:24 -0.02,-137.18 0.82,-140.98 432.81 80
6 12/19/2020 18:35:24 -0.02,-137.17 -0.28,-135.99 135.39 80
7 12/21/2020 06:54:25 0.02,-137.16 -0.75,-140.58 390.09 80
8 12/22/2020 06:31:05 0.01,-137.14 0.36,-135.58 177.91 80
9 12/23/2020 18:49:56 -0.01,-137.13 0.69,-140.14 343.41 80
10 12/24/2020 18:31:58 -0.01,-137.12 -0.48,-135.15 224.38 80
